Location: Sternwarte_Laufen
(47.9344°N, 12.9346°E)
Time: 18:03:07
(UTC+02:00)

ISS - Pass Details

Date: 20 May 2018
Orbit: 402 x 407 km, 51.6° (Epoch: 23 May)

Event Time Altitude Azimuth Distance (km) Brightness Sun altitude
Rises 21:31:54 0° 191° (S) 2,307 -0.3 -7.0°
Reaches altitude 10° 21:35:01 10° 158° (SSE) 1,452 -1.6 -7.4°
Maximum altitude 21:36:19 12° 134° (SE) 1,344 -1.9 -7.5°
Drops below altitude 10° 21:37:36 10° 111° (ESE) 1,456 -1.6 -7.7°
Sets 21:40:44 0° 78° (ENE) 2,320 -0.3 -8.1°
